When you browse on this site, cookies collect data to enhance your experience and personalize the content and advertising you see.
Visit our Privacy Policy to learn more. By continuing to use the site, you agree to this use of cookies and data.

Stündliche Wetter 8 Marta

Heute, 6 August, Donnerstag

Zeit Temperatur Niederschläge Wind Luftdruck Luftfeuchtigkeit
00:00 +19°C° 0 mm 1 m/S 746 mmHg 79%
01:00 +18°C° 0 mm 1 m/S 746 mmHg 79%
02:00 +18°C° 0 mm 1 m/S 746 mmHg 80%
03:00 +18°C° 0 mm 1 m/S 746 mmHg 80%
04:00 +16°C° 0 mm 0 m/S 746 mmHg 81%
05:00 +16°C° 0 mm 0 m/S 746 mmHg 81%
06:00 +16°C° 0 mm 0 m/S 746 mmHg 81%
07:00 +20°C° 0 mm 1 m/S 746 mmHg 76%
08:00 +22°C° 0 mm 1 m/S 746 mmHg 71%
09:00 +24°C° 0 mm 1 m/S 747 mmHg 66%
10:00 +25°C° 0 mm 1 m/S 747 mmHg 62%
11:00 +26°C° 0 mm 1 m/S 747 mmHg 58%
12:00 +27°C° 0 mm 1 m/S 747 mmHg 54%
13:00 +27°C° 0 mm 1 m/S 747 mmHg 53%
14:00 +27°C° 0 mm 2 m/S 747 mmHg 52%
15:00 +28°C° 0 mm 2 m/S 747 mmHg 51%
16:00 +27°C° 0 mm 2 m/S 746 mmHg 55%
17:00 +27°C° 0 mm 2 m/S 746 mmHg 59%
18:00 +27°C° 0 mm 1 m/S 746 mmHg 62%
19:00 +25°C° 0 mm 2 m/S 746 mmHg 69%
20:00 +23°C° 0 mm 2 m/S 746 mmHg 75%
21:00 +20°C° 0 mm 2 m/S 746 mmHg 82%
22:00 +20°C° 0 mm 2 m/S 746 mmHg 85%
23:00 +19°C° 0 mm 2 m/S 746 mmHg 89%

Morgen, 7 August, Freitag

Zeit Temperatur Niederschläge Wind Luftdruck Luftfeuchtigkeit
00:00 +19°C° 0 mm 3 m/S 746 mmHg 92%
01:00 +18°C° 0 mm 3 m/S 746 mmHg 93%
02:00 +18°C° 0 mm 3 m/S 747 mmHg 94%
03:00 +18°C° 0 mm 3 m/S 747 mmHg 96%
04:00 +17°C° 0 mm 3 m/S 747 mmHg 95%
05:00 +17°C° 0 mm 4 m/S 747 mmHg 95%
06:00 +17°C° 0 mm 4 m/S 747 mmHg 94%
07:00 +18°C° 0 mm 4 m/S 747 mmHg 88%
08:00 +19°C° 0 mm 5 m/S 747 mmHg 82%
09:00 +20°C° 0 mm 5 m/S 748 mmHg 76%
10:00 +21°C° 0 mm 5 m/S 748 mmHg 71%
11:00 +22°C° 0 mm 6 m/S 748 mmHg 66%
12:00 +23°C° 0 mm 6 m/S 748 mmHg 61%
13:00 +23°C° 0 mm 6 m/S 747 mmHg 59%
14:00 +23°C° 0 mm 6 m/S 747 mmHg 58%
15:00 +23°C° 0 mm 6 m/S 747 mmHg 56%
16:00 +23°C° 0 mm 5 m/S 747 mmHg 59%
17:00 +23°C° 0 mm 4 m/S 747 mmHg 62%
18:00 +23°C° 0 mm 4 m/S 747 mmHg 65%
19:00 +21°C° 0 mm 4 m/S 747 mmHg 68%
20:00 +20°C° 0 mm 4 m/S 747 mmHg 71%
21:00 +18°C° 0 mm 4 m/S 748 mmHg 74%
22:00 +17°C° 0 mm 3 m/S 748 mmHg 76%
23:00 +17°C° 0 mm 3 m/S 747 mmHg 78%

übermorgen, 8 August, Samstag

Zeit Temperatur Niederschläge Wind Luftdruck Luftfeuchtigkeit
00:00 +16°C° 0 mm 3 m/S 747 mmHg 80%
01:00 +16°C° 0 mm 3 m/S 747 mmHg 82%
02:00 +14°C° 0 mm 3 m/S 747 mmHg 84%
03:00 +14°C° 0 mm 3 m/S 747 mmHg 86%
04:00 +14°C° 0 mm 3 m/S 747 mmHg 87%
05:00 +14°C° 0 mm 3 m/S 747 mmHg 88%
06:00 +13°C° 0 mm 3 m/S 747 mmHg 88%
07:00 +16°C° 0 mm 3 m/S 747 mmHg 83%
08:00 +18°C° 0 mm 3 m/S 747 mmHg 77%
09:00 +20°C° 0 mm 3 m/S 747 mmHg 72%
10:00 +21°C° 0 mm 4 m/S 747 mmHg 67%
11:00 +22°C° 0 mm 4 m/S 747 mmHg 62%
12:00 +23°C° 0 mm 4 m/S 747 mmHg 58%
13:00 +23°C° 0 mm 4 m/S 747 mmHg 57%
14:00 +23°C° 0 mm 4 m/S 746 mmHg 57%
15:00 +23°C° 0 mm 4 m/S 746 mmHg 56%
16:00 +23°C° 0 mm 4 m/S 746 mmHg 59%
17:00 +24°C° 0 mm 3 m/S 745 mmHg 62%
18:00 +22°C° 0 mm 3 m/S 745 mmHg 65%
19:00 +21°C° 0 mm 2 m/S 745 mmHg 70%
20:00 +19°C° 0 mm 2 m/S 745 mmHg 74%
21:00 +18°C° 0 mm 2 m/S 745 mmHg 79%
22:00 +17°C° 0 mm 2 m/S 745 mmHg 80%
23:00 +17°C° 0 mm 2 m/S 745 mmHg 82%

9 August, Sonntag

Zeit Temperatur Niederschläge Wind Luftdruck Luftfeuchtigkeit
00:00 +17°C° 0 mm 2 m/S 745 mmHg 83%
01:00 +16°C° 0 mm 2 m/S 744 mmHg 85%
02:00 +16°C° 0 mm 2 m/S 744 mmHg 87%
03:00 +15°C° 0 mm 2 m/S 744 mmHg 88%
04:00 +15°C° 0 mm 2 m/S 744 mmHg 89%
05:00 +15°C° 0 mm 2 m/S 744 mmHg 90%
06:00 +15°C° 0 mm 2 m/S 744 mmHg 91%
07:00 +17°C° 0 mm 2 m/S 744 mmHg 85%
08:00 +19°C° 0 mm 3 m/S 744 mmHg 80%
09:00 +20°C° 0 mm 3 m/S 744 mmHg 75%
10:00 +21°C° 0 mm 3 m/S 744 mmHg 70%
11:00 +22°C° 0 mm 4 m/S 744 mmHg 65%
12:00 +25°C° 0 mm 4 m/S 744 mmHg 60%
13:00 +25°C° 0 mm 4 m/S 744 mmHg 60%
14:00 +25°C° 0 mm 4 m/S 743 mmHg 59%
15:00 +25°C° 0 mm 4 m/S 743 mmHg 58%
16:00 +25°C° 0 mm 3 m/S 743 mmHg 60%
17:00 +25°C° 0 mm 3 m/S 743 mmHg 63%
18:00 +24°C° 0 mm 3 m/S 743 mmHg 65%
19:00 +22°C° 0 mm 3 m/S 743 mmHg 70%
20:00 +20°C° 0 mm 2 m/S 743 mmHg 74%
21:00 +19°C° 0 mm 2 m/S 743 mmHg 78%
22:00 +18°C° 0 mm 2 m/S 743 mmHg 81%
23:00 +18°C° 0 mm 2 m/S 743 mmHg 83%

10 August, Montag

Zeit Temperatur Niederschläge Wind Luftdruck Luftfeuchtigkeit
00:00 +17°C° 0 mm 2 m/S 743 mmHg 85%
01:00 +17°C° 0 mm 2 m/S 743 mmHg 88%
02:00 +16°C° 0 mm 2 m/S 743 mmHg 90%
03:00 +16°C° 0 mm 2 m/S 743 mmHg 93%
04:00 +16°C° 0 mm 2 m/S 743 mmHg 93%
05:00 +15°C° 0 mm 2 m/S 743 mmHg 94%
06:00 +15°C° 0 mm 2 m/S 743 mmHg 95%
07:00 +17°C° 0 mm 3 m/S 743 mmHg 88%
08:00 +18°C° 0 mm 4 m/S 743 mmHg 81%
09:00 +19°C° 0 mm 4 m/S 744 mmHg 75%
10:00 +20°C° 0 mm 4 m/S 744 mmHg 69%
11:00 +20°C° 0 mm 4 m/S 744 mmHg 63%
12:00 +21°C° 0 mm 5 m/S 744 mmHg 57%
13:00 +21°C° 0 mm 4 m/S 744 mmHg 57%
14:00 +22°C° 0 mm 4 m/S 744 mmHg 57%
15:00 +22°C° 0 mm 4 m/S 744 mmHg 56%
16:00 +21°C° 0 mm 4 m/S 744 mmHg 58%
17:00 +21°C° 0 mm 3 m/S 744 mmHg 59%
18:00 +21°C° 0 mm 3 m/S 744 mmHg 61%
19:00 +19°C° 0 mm 3 m/S 744 mmHg 65%
20:00 +18°C° 0 mm 2 m/S 744 mmHg 70%
21:00 +16°C° 0 mm 2 m/S 744 mmHg 74%
22:00 +16°C° 0 mm 2 m/S 744 mmHg 75%
23:00 +15°C° 0 mm 1 m/S 744 mmHg 77%

11 August, Dienstag

Zeit Temperatur Niederschläge Wind Luftdruck Luftfeuchtigkeit
00:00 +15°C° 0 mm 1 m/S 744 mmHg 78%
01:00 +15°C° 0 mm 1 m/S 744 mmHg 78%
02:00 +14°C° 0 mm 1 m/S 744 mmHg 78%
03:00 +14°C° 0 mm 1 m/S 744 mmHg 78%
04:00 +14°C° 0 mm 1 m/S 744 mmHg 79%
05:00 +14°C° 0 mm 1 m/S 744 mmHg 79%
06:00 +14°C° 0 mm 2 m/S 744 mmHg 80%
07:00 +16°C° 0 mm 2 m/S 744 mmHg 74%
08:00 +18°C° 0 mm 2 m/S 744 mmHg 69%
09:00 +20°C° 0 mm 2 m/S 744 mmHg 63%
10:00 +21°C° 0 mm 2 m/S 744 mmHg 59%
11:00 +24°C° 0 mm 2 m/S 743 mmHg 56%
12:00 +25°C° 0 mm 2 m/S 743 mmHg 52%
13:00 +25°C° 0 mm 3 m/S 743 mmHg 52%
14:00 +26°C° 0 mm 3 m/S 743 mmHg 51%
15:00 +26°C° 0 mm 3 m/S 742 mmHg 51%
16:00 +25°C° 0.2 mm 3 m/S 742 mmHg 56%
17:00 +25°C° 0.2 mm 3 m/S 742 mmHg 61%
18:00 +24°C° 0.2 mm 3 m/S 742 mmHg 66%
19:00 +22°C° 0.3 mm 3 m/S 741 mmHg 70%
20:00 +21°C° 0.3 mm 3 m/S 741 mmHg 75%
21:00 +19°C° 0.3 mm 2 m/S 741 mmHg 80%
22:00 +19°C° 0.2 mm 2 m/S 741 mmHg 82%
23:00 +18°C° 0.2 mm 2 m/S 741 mmHg 85%
Mehr zeigen